[[{"header":{"parameterUnit":"m.s-1","parameterCategory":1,"la1":30.2991,"la2":30.254,"lo1":-89.0895,"lo2":-89.0444,"dy":0.0017,"dx":0.0017,"nx":28,"ny":28,"refTime":"2025-02-07T03:00:00:Z","depth":0,"parameterNumber":2,"parameterNumberName":"U-component_of_WINDS"},"data":[0,0,0,0,0,0,0,0,0,0,0,0,0,0,0,0,0,0,0,0,0,0,0,0,0,0,0,0,0,0,0,0,0,0,0,0,0,0,0,0,0,0,0,0,0,0,0,0,0,0,0,0,0,0,0,0,0,0,-0.5735,-0.5735,0,-0.5729,-0.5729,-0.5729,-0.5739,-0.5739,-0.574,-0.574,-0.5734,-0.5733,-0.5733,0,0,0,0,0,0,0,0,0,0,0,0,0,-0.5754,-0.5754,-0.5735,-0.5735,-0.5735,-0.5729,-0.5729,-0.5729,-0.5739,-0.5739,-0.574,-0.574,-0.5734,-0.5733,-0.5733,0,0,0,0,0,0,0,0,0,0,0,0,0,-0.5747,-0.5753,-0.5735,-0.5739,-0.5739,-0.5729,-0.5729,-0.5729,-0.5739,-0.5739,-0.574,-0.574,-0.5734,-0.5733,-0.5733,-0.5718,0,0,-0.573,-0.573,0,0,0,0,0,0,0,0,-0.5747,-0.5746,-0.5738,-0.5739,-0.5739,-0.5735,-0.5733,-0.5725,-0.5739,-0.5739,-0.574,-0.574,-0.5734,-0.5733,-0.5731,-0.5718,-0.5717,-0.573,-0.573,-0.5729,-0.5729,0,0,0,0,0,0,0,-0.5748,-0.5746,-0.5732,-0.5738,-0.5739,-0.5741,-0.574,-0.5732,-0.5733,-0.5739,-0.574,-0.5739,-0.5734,-0.5731,-0.5731,-0.5717,-0.573,-0.573,-0.5729,-0.5729,-0.5691,-0.569,0,0,0,0,0,0,-0.5748,-0.5747,-0.5733,-0.5732,-0.5744,-0.574,-0.574,-0.5736,-0.5734,-0.5734,-0.5738,-0.5739,-0.5732,-0.5732,-0.5731,-0.5713,-0.5729,-0.5729,-0.5728,-0.5692,-0.5691,-0.569,0,0,0,0,0,0,-0.5748,-0.5746,-0.5733,-0.574,-0.5738,-0.5739,-0.5735,-0.5735,-0.5733,-0.5733,-0.5734,-0.5736,-0.5733,-0.5732,-0.5721,-0.5713,-0.5728,-0.5728,-0.5692,-0.5691,-0.5691,-0.5677,0,0,0,0,0,0,-0.5748,-0.5746,-0.5741,-0.5739,-0.5738,-0.5723,-0.5734,-0.5735,-0.5732,-0.5733,-0.5731,-0.5731,-0.5733,-0.5722,-0.572,-0.5712,-0.5727,-0.5693,-0.5692,-0.5691,-0.5678,-0.5676,-0.5674,0,0,0,0,0,-0.5749,-0.5737,-0.5741,-0.5739,-0.5731,-0.5723,-0.5722,-0.5725,-0.5731,-0.5725,-0.5726,-0.5731,-0.5714,-0.5721,-0.5719,-0.571,-0.5693,-0.5692,-0.5691,-0.5679,-0.5676,-0.5674,0,0,0,0,0,0,-0.5738,-0.5737,-0.5741,-0.5728,-0.5726,-0.5725,-0.5718,-0.5722,-0.5717,-0.5718,-0.5722,-0.5722,-0.571,-0.5709,-0.5717,-0.5695,-0.5705,-0.5703,-0.5696,-0.5694,-0.5691,-0.5691,-0.5727,0,0,0,0,0,-0.5734,-0.5728,-0.5728,-0.5717,-0.5715,-0.5716,-0.5713,-0.5716,-0.5713,-0.5712,-0.5711,-0.5708,-0.5702,-0.5698,-0.5692,-0.5678,-0.5677,-0.5671,-0.5669,-0.5667,-0.5666,-0.5657,-0.5654,-0.5686,-0.5686,-0.5686,0,0,-0.5726,-0.5725,-0.5721,-0.5714,-0.5712,-0.5705,-0.5715,-0.5708,-0.5702,-0.5711,-0.57,-0.57,-0.5696,-0.5684,-0.5678,-0.5683,-0.5657,-0.5666,-0.5664,-0.5663,-0.5656,-0.5653,-0.565,-0.5685,-0.5685,-0.5685,0,0,-0.5708,-0.5706,-0.5697,-0.5694,-0.5691,-0.5692,-0.569,-0.5688,-0.5688,-0.5678,-0.5684,-0.5677,-0.5667,-0.5664,-0.5662,-0.5641,-0.5646,-0.564,-0.5628,-0.5619,-0.5617,-0.5615,-0.5607,-0.5604,-0.5638,-0.5638,-0.5638,0,-0.5698,-0.5687,-0.5691,-0.5683,-0.5679,-0.5686,-0.5676,-0.5674,-0.5669,-0.5667,-0.5672,-0.5659,-0.5657,-0.5644,-0.5639,-0.5637,-0.5634,-0.564,-0.5617,-0.5615,-0.5613,-0.5605,-0.5602,-0.5637,-0.5637,-0.5637,-0.5637,0,-0.5675,-0.5668,-0.566,-0.5655,-0.5651,-0.5642,-0.5644,-0.564,-0.5643,-0.5643,-0.5632,-0.563,-0.5624,-0.5621,-0.5624,-0.5608,-0.5611,-0.5617,-0.5626,-0.5609,-0.5602,-0.5599,-0.5636,-0.5636,-0.5637,-0.5637,0,0,-0.5649,-0.5646,-0.5643,-0.5641,-0.5638,-0.5632,-0.5623,-0.5617,-0.5613,-0.5609,-0.5601,-0.5592,-0.5597,-0.5594,-0.5597,-0.559,-0.5573,-0.5596,-0.5596,-0.5591,-0.5554,-0.5549,-0.5545,-0.5576,-0.5576,-0.5575,-0.5554,0,-0.563,-0.5615,-0.5617,-0.5602,-0.5595,-0.5601,-0.5593,-0.559,-0.559,-0.5584,-0.5584,-0.5578,-0.5585,-0.5583,-0.5577,-0.5576,-0.5565,-0.5578,-0.5568,-0.5568,-0.5568,-0.5542,-0.5537,-0.5517,-0.5551,-0.5551,-0.555,0,-0.5606,-0.5601,-0.5585,-0.5582,-0.5579,-0.5572,-0.5566,-0.5561,-0.5557,-0.5558,-0.5554,-0.5558,-0.5548,-0.5558,-0.5545,-0.5553,-0.555,-0.5549,-0.5548,-0.5547,-0.5557,-0.5539,-0.551,-0.5507,-0.5546,-0.5546,-0.5547,0,-0.5588,-0.5577,-0.5566,-0.5564,-0.556,-0.5555,-0.5553,-0.5551,-0.5547,-0.5542,-0.5539,-0.5533,-0.553,-0.5525,-0.5527,-0.5534,-0.5513,-0.5523,-0.5513,-0.5512,-0.5507,-0.5507,-0.5477,-0.5506,-0.5506,-0.5506,-0.5506,0,-0.5565,-0.5555,-0.5557,-0.555,-0.5539,-0.5542,-0.553,-0.553,-0.5527,-0.552,-0.5525,-0.5518,-0.5521,-0.5515,-0.5516,-0.5504,-0.5503,-0.5503,-0.5503,-0.5502,-0.5502,-0.5499,-0.55,-0.5505,-0.5506,-0.5506,-0.5506,0,-0.5543,-0.5544,-0.5532,-0.553,-0.5529,-0.552,-0.5519,-0.5512,-0.5512,-0.5503,-0.5501,-0.5501,-0.5494,-0.5495,-0.5487,-0.5488,-0.5473,-0.5475,-0.5474,-0.5474,-0.5463,-0.5463,-0.5429,-0.5424,-0.5457,-0.5457,-0.5457,0,-0.5528,-0.552,-0.5517,-0.5512,-0.551,-0.5503,-0.5499,-0.5502,-0.5497,-0.5492,-0.5486,-0.5478,-0.5473,-0.546,-0.5459,-0.5453,-0.5454,-0.5443,-0.5453,-0.5452,-0.5453,-0.5453,-0.5452,-0.544,-0.544,-0.544,-0.5439,0,-0.5502,-0.5503,-0.5496,-0.549,-0.5485,-0.548,-0.5475,-0.5471,-0.5474,-0.5468,-0.546,-0.5456,-0.5447,-0.5439,-0.5433,-0.5431,-0.5435,-0.5436,-0.5433,-0.5431,-0.543,-0.543,-0.5467,-0.5437,-0.5437,-0.5437,-0.5437,-0.5437,-0.5482,-0.5475,-0.5472,-0.5464,-0.5461,-0.5457,-0.545,-0.5449,-0.5443,-0.5435,-0.5437,-0.5428,-0.5424,-0.5416,-0.5414,-0.5406,-0.5411,-0.5407,-0.5405,-0.5404,-0.5402,-0.5432,-0.5405,-0.5405,-0.5405,-0.5405,-0.5406,0,-0.5456,-0.5454,-0.5447,-0.544,-0.5434,-0.5439,-0.5434,-0.5428,-0.542,-0.5416,-0.541,-0.54,-0.5393,-0.5392,-0.5385,-0.5379,-0.538,-0.5377,-0.5377,-0.5376,-0.5399,-0.5402,-0.5375,-0.5375,-0.5375,-0.5375,-0.5375,-0.5375,-0.5441,-0.5429,-0.5429,-0.5415,-0.5413,-0.5404,-0.54,-0.5396,-0.5393,-0.5382,-0.5376,-0.5375,-0.5372,-0.5364,-0.5358,-0.5357,-0.5354,-0.5349,-0.535,-0.5371,-0.5374,-0.5377,-0.538,-0.5349,-0.5349,-0.5327,-0.5327,-0.5326]},{"header":{"parameterUnit":"m.s-1","parameterCategory":1,"la1":30.2991,"la2":30.254,"lo1":-89.0895,"lo2":-89.0444,"dy":0.0017,"dx":0.0017,"nx":28,"ny":28,"refTime":"2025-02-07T03:00:00:Z","depth":0,"parameterNumber":3,"parameterNumberName":"V-component_of_WINDS"},"data":[0,0,0,0,0,0,0,0,0,0,0,0,0,0,0,0,0,0,0,0,0,0,0,0,0,0,0,0,0,0,0,0,0,0,0,0,0,0,0,0,0,0,0,0,0,0,0,0,0,0,0,0,0,0,0,0,0,0,1.1414,1.1415,0,1.1524,1.1526,1.1527,1.1564,1.1563,1.1563,1.1562,1.1679,1.1682,1.1686,0,0,0,0,0,0,0,0,0,0,0,0,0,1.1237,1.124,1.1414,1.1415,1.1416,1.1524,1.1526,1.1527,1.1564,1.1563,1.1563,1.1562,1.1677,1.1682,1.1686,0,0,0,0,0,0,0,0,0,0,0,0,0,1.1328,1.1241,1.1413,1.1448,1.1452,1.1524,1.1526,1.1528,1.1564,1.1563,1.1562,1.1562,1.1676,1.1681,1.1687,1.1733,0,0,1.1703,1.1705,0,0,0,0,0,0,0,0,1.1322,1.1334,1.1441,1.1445,1.145,1.1529,1.1506,1.1597,1.1564,1.1521,1.1562,1.1561,1.163,1.1639,1.1661,1.1739,1.1744,1.1703,1.1706,1.1709,1.171,0,0,0,0,0,0,0,1.1316,1.1329,1.1458,1.1443,1.1448,1.1458,1.147,1.1523,1.1578,1.1525,1.1528,1.154,1.1632,1.1656,1.1664,1.1746,1.1703,1.1708,1.1711,1.1713,1.1869,1.187,0,0,0,0,0,0,1.1304,1.1324,1.1454,1.1461,1.1383,1.1462,1.1476,1.1505,1.1578,1.1588,1.1541,1.1542,1.1647,1.1658,1.1668,1.173,1.1709,1.1714,1.1717,1.1868,1.1869,1.187,0,0,0,0,0,0,1.13,1.1315,1.145,1.1393,1.1411,1.1466,1.1498,1.1507,1.1531,1.159,1.16,1.1555,1.1647,1.1661,1.1717,1.1734,1.1716,1.1721,1.1867,1.1868,1.187,1.1851,0,0,0,0,0,0,1.1294,1.1313,1.1331,1.1393,1.1414,1.1495,1.1499,1.151,1.154,1.1542,1.1606,1.1616,1.1648,1.1709,1.1722,1.1741,1.1725,1.1866,1.1868,1.1869,1.1851,1.1852,1.1853,0,0,0,0,0,1.1288,1.1322,1.1332,1.1347,1.1437,1.1496,1.1508,1.1543,1.1541,1.156,1.1598,1.1614,1.173,1.1714,1.173,1.175,1.1865,1.1867,1.1869,1.185,1.1852,1.1853,0,0,0,0,0,0,1.1261,1.1331,1.1342,1.1397,1.144,1.1502,1.1527,1.1544,1.1589,1.159,1.1632,1.1646,1.17,1.173,1.1712,1.18,1.1798,1.1803,1.1778,1.178,1.1781,1.1774,1.1729,0,0,0,0,0,1.1261,1.1302,1.1361,1.1404,1.1425,1.1472,1.1499,1.1522,1.157,1.1588,1.163,1.1676,1.1723,1.1753,1.1799,1.1855,1.187,1.1876,1.1878,1.1878,1.1883,1.1916,1.192,1.1877,1.1877,1.1877,0,0,1.1263,1.1306,1.1329,1.14,1.1436,1.1479,1.1487,1.1532,1.1565,1.1596,1.1651,1.1683,1.1738,1.1794,1.1821,1.1821,1.1898,1.1881,1.1881,1.1886,1.1919,1.1923,1.1926,1.1879,1.1878,1.1878,0,0,1.1287,1.1323,1.1363,1.1399,1.1454,1.1485,1.1494,1.1554,1.1576,1.1632,1.1656,1.1696,1.1776,1.1814,1.1843,1.1882,1.1899,1.1896,1.1903,1.1934,1.1938,1.1941,1.1957,1.1961,1.19,1.19,1.19,0,1.1283,1.1347,1.1382,1.1426,1.1457,1.1485,1.1527,1.156,1.1627,1.1649,1.1648,1.1748,1.1787,1.1853,1.1862,1.1885,1.1898,1.189,1.1934,1.1938,1.1942,1.1957,1.1962,1.1899,1.1899,1.19,1.19,0,1.134,1.1384,1.141,1.1473,1.1507,1.1549,1.1591,1.1621,1.1641,1.1673,1.1731,1.1777,1.1834,1.1851,1.1871,1.1921,1.1919,1.1926,1.1925,1.1944,1.196,1.1966,1.1899,1.1899,1.1899,1.1899,0,0,1.1352,1.1433,1.1442,1.1472,1.1534,1.1569,1.1613,1.1668,1.1693,1.1738,1.1778,1.1844,1.1851,1.1884,1.1909,1.1936,1.1966,1.194,1.1942,1.1945,1.2025,1.2021,1.2027,1.1977,1.1978,1.1979,1.2021,0,1.1386,1.1465,1.1498,1.1562,1.1605,1.1632,1.167,1.1713,1.1743,1.1785,1.1818,1.1866,1.1869,1.189,1.1918,1.1956,1.1983,1.1953,1.2016,1.2017,1.2003,1.2035,1.2031,1.2068,1.2027,1.2028,1.2029,0,1.1437,1.1482,1.155,1.1607,1.1626,1.166,1.1713,1.1751,1.1801,1.1821,1.1858,1.1882,1.193,1.1924,1.1993,1.1972,1.1999,1.2022,1.2024,1.2033,1.2026,1.2046,1.2081,1.2087,1.2038,1.2037,1.2037,0,1.1442,1.1519,1.157,1.1594,1.1661,1.1685,1.1714,1.1763,1.1793,1.184,1.1861,1.1912,1.1941,1.1981,1.2018,1.201,1.2084,1.2081,1.2104,1.2103,1.212,1.2119,1.2161,1.2134,1.2134,1.2133,1.2133,0,1.1478,1.1519,1.1573,1.1604,1.1652,1.1689,1.1735,1.1766,1.1809,1.1848,1.1875,1.1911,1.1957,1.2,1.2029,1.2082,1.2094,1.2114,1.2121,1.2112,1.211,1.2132,1.2132,1.2135,1.2135,1.2134,1.2134,0,1.1492,1.1529,1.1587,1.1645,1.1661,1.1694,1.1745,1.1777,1.1808,1.1857,1.1871,1.1921,1.1972,1.2013,1.208,1.21,1.2157,1.2164,1.214,1.2144,1.2166,1.2164,1.2226,1.2236,1.2199,1.22,1.22,0,1.1513,1.1545,1.1607,1.1635,1.1664,1.1708,1.1739,1.1776,1.1808,1.1867,1.1893,1.1946,1.1991,1.2072,1.2115,1.2167,1.2177,1.2195,1.2185,1.2176,1.218,1.2178,1.2183,1.2197,1.2197,1.2197,1.2197,0,1.1548,1.1565,1.1608,1.1659,1.1695,1.1737,1.1779,1.18,1.1846,1.188,1.1933,1.1967,1.2036,1.2089,1.2145,1.2177,1.2196,1.22,1.2208,1.2201,1.2186,1.2196,1.2145,1.2199,1.2199,1.2199,1.2199,1.2198,1.1568,1.1598,1.1647,1.1694,1.173,1.1769,1.1802,1.1837,1.1881,1.1939,1.1958,1.2013,1.2062,1.214,1.2172,1.2216,1.2217,1.2229,1.2232,1.2235,1.2235,1.2177,1.2226,1.2226,1.2226,1.2226,1.2226,0,1.1606,1.1638,1.1682,1.1739,1.1777,1.1789,1.1837,1.1868,1.1915,1.1959,1.2002,1.2063,1.2115,1.2161,1.2215,1.2242,1.2252,1.2255,1.2255,1.2262,1.223,1.2218,1.2246,1.2246,1.2246,1.2246,1.2246,1.2246,1.1631,1.1683,1.1705,1.1776,1.1808,1.186,1.1887,1.1923,1.1958,1.2025,1.2067,1.2096,1.2142,1.2199,1.2248,1.226,1.228,1.2281,1.2296,1.2266,1.2264,1.2262,1.2251,1.2285,1.2285,1.2325,1.2325,1.2325]}]]